DW5861 Weather Reports


Display with metric or nautical units.
time (UTC)temp
F
wind
direction
speed
MPH
gust
MPH
rain 1hr
in
rain 24hr
in
rain mn
in
humidity
%
barometer
mb
20260506095504 74 173 1.0 3.0 0.00 0.00 0.00 92 1008.4
20260506095004 74 174 1.0 3.0 0.00 0.00 0.00 92 1008.5
20260506094504 74 180 1.0 3.0 0.00 0.00 0.00 92 1008.4
20260506094004 74 169 1.0 3.0 0.00 0.00 0.00 92 1008.4
20260506093504 74 172 1.0 2.0 0.00 0.00 0.00 92 1008.3
20260506093004 74 177 1.0 3.0 0.00 0.00 0.00 92 1008.3
20260506092504 74 183 1.0 3.0 0.00 0.00 0.00 92 1008.4
20260506092004 74 179 1.0 3.0 0.00 0.00 0.00 91 1008.4
20260506091504 74 173 1.0 3.0 0.00 0.00 0.00 91 1008.3
20260506091004 74 166 1.0 2.0 0.00 0.00 0.00 91 1008.4
20260506090525 74 169 1.0 2.0 0.00 0.00 0.00 91 1008.5
20260506090004 74 180 1.0 2.0 0.00 0.00 0.00 91 1008.5
20260506085504 74 182 1.0 3.0 0.00 0.00 0.00 91 1008.4
20260506085004 74 181 1.0 3.0 0.00 0.00 0.00 91 1008.5
20260506084504 74 173 1.0 2.0 0.00 0.00 0.00 91 1008.5
20260506084004 74 174 1.0 2.0 0.00 0.00 0.00 91 1008.5
20260506083504 74 181 1.0 2.0 0.00 0.00 0.00 91 1008.5
20260506083004 74 183 0.0 2.0 0.00 0.00 0.00 91 1008.5
20260506082504 75 190 1.0 2.0 0.00 0.00 0.00 91 1008.4
20260506082004 75 185 1.0 2.0 0.00 0.00 0.00 91 1008.4
20260506081505 75 170 1.0 2.0 0.00 0.00 0.00 91 1008.4
20260506081025 75 176 1.0 2.0 0.00 0.00 0.00 91 1008.4
20260506080504 75 173 1.0 3.0 0.00 0.00 0.00 91 1008.4
20260506073504 75 162 1.0 4.0 0.00 0.00 0.00 91 1008.5
20260506073004 75 169 1.0 3.0 0.00 0.00 0.00 91 1008.7
20260506072505 75 183 1.0 3.0 0.00 0.00 0.00 91 1008.7
20260506072004 75 174 1.0 4.0 0.00 0.00 0.00 91 1008.6
20260506071525 75 160 1.0 4.0 0.00 0.00 0.00 91 1008.5
20260506071004 75 160 1.0 2.0 0.00 0.00 0.00 91 1008.7
20260506070504 75 158 1.0 2.0 0.00 0.00 0.00 91 1008.7
20260506062504 75 178 1.0 3.0 0.00 0.00 0.00 91 1008.8
20260506062004 75 183 2.0 3.0 0.00 0.00 0.00 91 1008.8
20260506061504 75 182 2.0 3.0 0.00 0.00 0.00 91 1008.7
20260506061004 75 182 2.0 3.0 0.00 0.00 0.00 90 1008.7
20260506060504 75 184 1.0 4.0 0.00 0.00 0.00 90 1008.8
20260506051004 76 180 2.0 5.0 0.00 0.00 0.00 90 1008.6
20260506050504 76 179 2.0 7.0 0.00 0.00 0.00 89 1008.6
20260506045004 76 171 2.0 5.0 0.00 0.00 0.00 89 1008.6
20260506044504 76 179 1.0 4.0 0.00 0.00 0.00 89 1008.7
20260506044004 76 189 1.0 3.0 0.00 0.00 0.00 89 1008.7
20260506043504 76 182 1.0 4.0 0.00 0.00 0.00 89 1008.6
20260506043004 76 171 1.0 5.0 0.00 0.00 0.00 89 1008.6
20260506042525 76 165 1.0 5.0 0.00 0.00 0.00 89 1008.6
20260506042004 76 167 1.0 3.0 0.00 0.00 0.00 89 1008.6
20260506041525 76 176 1.0 3.0 0.00 0.00 0.00 89 1008.6
20260506041004 76 178 1.0 3.0 0.00 0.00 0.00 89 1008.4
20260506040504 76 179 1.0 3.0 0.00 0.00 0.00 89 1008.3
20260506040004 76 177 2.0 4.0 0.00 0.00 0.00 89 1008.4
20260506035504 76 174 2.0 5.0 0.00 0.00 0.00 89 1008.4
20260506035004 76 175 2.0 6.0 0.00 0.00 0.00 89 1008.3
20260506034504 76 176 2.0 6.0 0.00 0.00 0.00 89 1008.2
20260506034004 76 177 2.0 6.0 0.00 0.00 0.00 89 1008.2
20260506033504 76 175 2.0 5.0 0.00 0.00 0.00 89 1008.1
20260506033004 76 168 1.0 5.0 0.00 0.00 0.00 89 1008.1
20260506032504 76 174 2.0 6.0 0.00 0.00 0.00 89 1008.0
20260506032004 76 180 2.0 6.0 0.00 0.00 0.00 89 1008.0
20260506031504 76 181 2.0 4.0 0.00 0.00 0.00 88 1007.9
20260506031004 76 181 2.0 4.0 0.00 0.00 0.00 88 1007.7
20260506030504 76 177 2.0 4.0 0.00 0.00 0.00 88 1007.7
20260506030005 76 180 2.0 4.0 0.00 0.00 0.00 88 1007.5
20260506025504 76 171 3.0 9.0 0.00 0.00 0.00 88 1007.3
20260506025004 76 174 3.0 9.0 0.00 0.00 0.00 88 1007.3
20260506024504 76 178 3.0 11.0 0.00 0.00 0.00 88 1007.2
20260506024004 76 175 3.0 11.0 0.00 0.00 0.00 88 1007.1
20260506023504 76 175 3.0 6.0 0.00 0.00 0.00 87 1007.1
20260506023004 76 170 3.0 9.0 0.00 0.00 0.00 88 1007.1
20260506022504 76 176 2.0 9.0 0.00 0.00 0.00 88 1007.1
20260506022004 77 176 2.0 9.0 0.00 0.00 0.00 88 1007.0
20260506021504 77 170 3.0 9.0 0.00 0.00 0.00 87 1007.0
20260506021004 77 172 2.0 5.0 0.00 0.00 0.00 87 1006.9
20260506020504 77 176 2.0 6.0 0.00 0.00 0.00 87 1006.9
20260506020004 77 178 2.0 6.0 0.00 0.00 0.00 87 1006.9
20260506015504 77 185 2.0 4.0 0.00 0.00 0.00 87 1006.7
20260506015004 77 186 2.0 4.0 0.00 0.00 0.00 87 1006.6
20260506014504 77 181 1.0 4.0 0.00 0.00 0.00 87 1006.6
20260506014025 77 182 1.0 3.0 0.00 0.00 0.00 87 1006.5
20260506013504 77 185 2.0 6.0 0.00 0.00 0.00 86 1006.4
20260506013004 78 183 2.0 6.0 0.00 0.00 0.00 86 1006.3
20260506012525 78 177 2.0 4.0 0.00 0.00 0.00 86 1006.2
20260506012004 78 175 2.0 8.0 0.00 0.00 0.00 86 1006.2
20260506011504 78 181 2.0 8.0 0.00 0.00 0.00 86 1006.1
20260506011004 78 182 2.0 7.0 0.00 0.00 0.00 86 1006.0
20260506010504 78 172 2.0 8.0 0.00 0.00 0.00 85 1005.9
20260506010004 78 173 2.0 8.0 0.00 0.00 0.00 85 1005.9
20260506005504 79 169 3.0 11.0 0.00 0.00 0.00 85 1005.8
20260506005004 79 167 3.0 11.0 0.00 0.00 0.00 84 1005.7
20260506004504 79 170 4.0 9.0 0.00 0.00 0.00 84 1005.7
20260506004004 79 171 3.0 9.0 0.00 0.00 0.00 84 1005.5
20260506003504 80 176 2.0 7.0 0.00 0.00 0.00 83 1005.4
20260506003004 80 179 2.0 7.0 0.00 0.00 0.00 83 1005.4
20260506002504 80 174 2.0 5.0 0.00 0.00 0.00 83 1005.5
20260506002004 80 166 2.0 10.0 0.00 0.00 0.00 82 1005.4
20260506001507 80 172 3.0 10.0 0.00 0.00 0.00 81 1005.5
20260506001025 81 173 3.0 10.0 0.00 0.00 0.00 81 1005.6
20260506000524 81 177 3.0 7.0 0.00 0.00 0.00 81 1005.5
20260506000004 81 179 3.0 7.0 0.00 0.00 0.00 80 1005.6
20260505235504 82 166 4.0 9.0 0.00 0.00 0.00 79 1005.7
20260505235003 82 166 4.0 9.0 0.00 0.00 0.00 79 1005.6
20260505234503 82 173 4.0 8.0 0.00 0.00 0.00 78 1005.5
20260505234003 82 167 3.0 9.0 0.00 0.00 0.00 78 1005.5
20260505233525 83 167 3.0 9.0 0.00 0.00 0.00 77 1005.5
20260505233004 83 171 3.0 9.0 0.00 0.00 0.00 77 1005.5
20260505232504 83 177 2.0 8.0 0.00 0.00 0.00 77 1005.4
20260505232004 84 182 2.0 6.0 0.00 0.00 0.00 77 1005.6
20260505231525 84 182 3.0 6.0 0.00 0.00 0.00 76 1005.6
20260505231004 83 180 3.0 6.0 0.00 0.00 0.00 77 1005.7
20260505230504 83 176 3.0 6.0 0.00 0.00 0.00 77 1005.7
20260505230004 83 181 3.0 8.0 0.00 0.00 0.00 76 1005.8
20260505225504 84 194 3.0 8.0 0.00 0.00 0.00 75 1005.9
20260505225004 84 188 3.0 6.0 0.00 0.00 0.00 75 1005.9
20260505224504 84 170 3.0 12.0 0.00 0.00 0.00 75 1005.7
20260505224004 84 173 3.0 12.0 0.00 0.00 0.00 74 1005.8
20260505223525 84 186 3.0 8.0 0.00 0.00 0.00 74 1005.8
20260505223004 85 180 3.0 8.0 0.00 0.00 0.00 73 1005.8
20260505222525 85 179 4.0 9.0 0.00 0.00 0.00 73 1005.8
20260505222004 85 184 4.0 9.0 0.00 0.00 0.00 72 1005.8
20260505221503 85 184 4.0 9.0 0.00 0.00 0.00 73 1005.7
20260505221004 84 183 3.0 7.0 0.00 0.00 0.00 74 1005.7
20260505220503 84 185 3.0 8.0 0.00 0.00 0.00 74 1005.8
20260505220004 85 185 4.0 10.0 0.00 0.00 0.00 72 1005.8
20260505215504 86 179 4.0 10.0 0.00 0.00 0.00 71 1005.8
20260505215003 86 184 4.0 10.0 0.00 0.00 0.00 71 1005.8
20260505214504 86 185 4.0 14.0 0.00 0.00 0.00 70 1005.7
20260505214004 86 177 4.0 14.0 0.00 0.00 0.00 70 1005.7
20260505213524 86 188 4.0 8.0 0.00 0.00 0.00 71 1005.6
20260505213003 86 195 4.0 8.0 0.00 0.00 0.00 71 1005.8
20260505212504 86 193 3.0 8.0 0.00 0.00 0.00 70 1005.8
20260505212003 87 197 3.0 7.0 0.00 0.00 0.00 71 1005.9
20260505211504 87 188 4.0 8.0 0.00 0.00 0.00 68 1006.0
20260505211004 88 176 4.0 10.0 0.00 0.00 0.00 68 1006.1
20260505210525 88 175 4.0 10.0 0.00 0.00 0.00 68 1006.1
20260505210004 87 185 4.0 9.0 0.00 0.00 0.00 70 1006.2
20260505205503 86 189 4.0 9.0 0.00 0.00 0.00 70 1006.3
20260505205024 86 188 5.0 12.0 0.00 0.00 0.00 71 1006.5
20260505204504 85 186 5.0 12.0 0.00 0.00 0.00 71 1006.5
20260505204003 86 186 4.0 9.0 0.00 0.00 0.00 71 1006.6
20260505203503 85 197 3.0 8.0 0.00 0.00 0.00 72 1006.6
20260505203025 86 194 4.0 9.0 0.00 0.00 0.00 71 1006.8
20260505202503 86 196 4.0 9.0 0.00 0.00 0.00 70 1006.8
20260505202024 84 210 4.0 10.0 0.00 0.00 0.00 72 1006.9
20260505201504 86 204 4.0 10.0 0.00 0.00 0.00 71 1006.9
20260505201004 87 187 4.0 11.0 0.00 0.00 0.00 70 1006.9
20260505200504 87 167 4.0 11.0 0.00 0.00 0.00 70 1007.1
20260505200003 87 163 4.0 12.0 0.00 0.00 0.00 69 1007.0
20260505195504 87 179 4.0 12.0 0.00 0.00 0.00 71 1007.1
20260505195024 86 184 4.0 8.0 0.00 0.00 0.00 71 1007.1
20260505194503 86 177 4.0 10.0 0.00 0.00 0.00 72 1007.2
20260505194003 87 177 4.0 11.0 0.00 0.00 0.00 71 1007.2
20260505193503 85 200 4.0 11.0 0.00 0.00 0.00 72 1007.4
20260505193003 86 208 4.0 11.0 0.00 0.00 0.00 70 1007.5
20260505192504 86 193 4.0 11.0 0.00 0.00 0.00 71 1007.5
20260505192024 86 194 4.0 10.0 0.00 0.00 0.00 74 1007.6
20260505191503 84 199 4.0 13.0 0.00 0.00 0.00 74 1007.5
20260505191003 83 200 5.0 13.0 0.00 0.00 0.00 74 1007.6
20260505190503 84 194 4.0 12.0 0.00 0.00 0.00 74 1007.7
20260505190004 85 188 4.0 12.0 0.00 0.00 0.00 72 1007.7
20260505185503 85 187 4.0 10.0 0.00 0.00 0.00 72 1007.7
20260505185003 84 187 4.0 10.0 0.00 0.00 0.00 73 1007.7
20260505184524 84 191 4.0 10.0 0.00 0.00 0.00 74 1007.8
20260505184003 84 195 4.0 9.0 0.00 0.00 0.00 74 1007.7
20260505183503 83 201 4.0 8.0 0.00 0.00 0.00 76 1007.9
20260505183003 82 206 4.0 9.0 0.00 0.00 0.00 76 1008.0
20260505182503 82 196 4.0 9.0 0.00 0.00 0.00 76 1008.0
20260505182003 82 192 4.0 8.0 0.00 0.00 0.00 77 1008.0
20260505181503 82 213 4.0 8.0 0.00 0.00 0.00 77 1007.9
20260505181003 82 210 3.0 8.0 0.00 0.00 0.00 76 1007.9
20260505180503 83 193 3.0 8.0 0.00 0.00 0.00 76 1007.9
20260505180003 82 203 3.0 9.0 0.00 0.00 0.00 77 1007.8
20260505175503 82 203 3.0 9.0 0.00 0.00 0.00 77 1007.8
20260505175003 80 198 3.0 9.0 0.00 0.00 0.00 79 1007.9
20260505174503 80 184 3.0 9.0 0.00 0.00 0.00 79 1008.0
20260505174024 80 171 3.0 7.0 0.00 0.00 0.00 79 1008.1
20260505173503 80 174 3.0 9.0 0.00 0.00 0.00 79 1008.1
20260505173004 80 175 3.0 9.0 0.00 0.00 0.00 79 1008.2
20260505172524 80 174 3.0 9.0 0.00 0.00 0.00 81 1008.2
20260505172003 79 184 3.0 10.0 0.00 0.00 0.00 82 1008.3
20260505171503 78 194 3.0 10.0 0.00 0.00 0.00 82 1008.3
20260505171003 78 194 2.0 7.0 0.00 0.00 0.00 82 1008.4
20260505170503 78 195 3.0 6.0 0.00 0.00 0.00 82 1008.5
20260505170024 78 205 3.0 7.0 0.00 0.00 0.00 81 1008.5
20260505165503 79 196 3.0 7.0 0.00 0.00 0.00 81 1008.5
20260505165003 79 186 3.0 7.0 0.00 0.00 0.00 81 1008.4
20260505164503 79 186 3.0 7.0 0.00 0.00 0.00 82 1008.4
20260505164003 78 189 2.0 7.0 0.00 0.00 0.00 83 1008.5
20260505163524 77 184 2.0 4.0 0.00 0.00 0.00 85 1008.5
20260505163024 76 183 2.0 5.0 0.00 0.00 0.00 85 1008.6
20260505162503 76 182 2.0 5.0 0.00 0.00 0.00 85 1008.8
20260505162003 76 182 2.0 7.0 0.00 0.00 0.00 85 1008.8
20260505161524 76 186 2.0 7.0 0.00 0.00 0.00 85 1008.9
20260505161003 76 186 2.0 7.0 0.00 0.00 0.00 85 1008.8
20260505160503 76 191 2.0 6.0 0.00 0.00 0.00 86 1008.8
20260505153003 75 185 3.0 8.0 0.00 0.00 0.00 85 1008.2
20260505152503 75 189 2.0 5.0 0.00 0.00 0.00 85 1008.3
20260505152024 75 193 2.0 5.0 0.00 0.00 0.00 86 1008.4
20260505151503 75 196 2.0 5.0 0.00 0.00 0.00 85 1008.3
20260505151024 75 191 2.0 5.0 0.00 0.00 0.00 85 1008.3
20260505150503 75 179 3.0 7.0 0.00 0.00 0.00 86 1008.4
20260505140504 72 184 2.0 5.0 0.00 0.00 0.00 89 1008.4
20260505125004 69 183 2.0 3.0 0.00 0.00 0.00 92 1008.4
20260505124525 69 183 2.0 4.0 0.00 0.00 0.00 92 1008.3
20260505124004 68 192 2.0 5.0 0.00 0.00 0.00 92 1008.3
20260505123525 68 189 2.0 6.0 0.00 0.00 0.00 92 1008.2
20260505123004 68 177 2.0 6.0 0.00 0.00 0.00 92 1008.1
20260505122504 68 185 2.0 5.0 0.00 0.00 0.00 92 1008.0
20260505122004 68 188 2.0 4.0 0.00 0.00 0.00 92 1007.8
20260505121504 68 181 2.0 4.0 0.00 0.00 0.00 92 1007.8
20260505121025 68 187 2.0 4.0 0.00 0.00 0.00 92 1007.9
20260505120504 68 185 2.0 5.0 0.00 0.00 0.00 92 1008.0
20260505120005 68 183 2.0 5.0 0.00 0.00 0.00 92 1008.0
20260505115504 68 182 2.0 5.0 0.00 0.00 0.00 92 1008.1
20260505115004 68 187 2.0 4.0 0.00 0.00 0.00 92 1008.1
20260505114504 68 196 2.0 3.0 0.00 0.00 0.00 92 1008.0
20260505114004 68 191 2.0 4.0 0.00 0.00 0.00 92 1008.0
20260505113504 68 184 2.0 4.0 0.00 0.00 0.00 91 1007.7
20260505113004 68 182 2.0 7.0 0.00 0.00 0.00 91 1007.7
20260505112504 68 181 2.0 7.0 0.00 0.00 0.00 91 1007.7
20260505112004 68 182 2.0 6.0 0.00 0.00 0.00 91 1007.8
20260505111504 68 184 3.0 6.0 0.00 0.00 0.00 91 1007.7
20260505111004 68 184 3.0 5.0 0.00 0.00 0.00 91 1007.7
20260505110504 68 186 2.0 5.0 0.00 0.00 0.00 91 1007.7
20260505102004 67 181 2.0 5.0 0.00 0.00 0.00 91 1007.6
20260505101504 67 174 2.0 5.0 0.00 0.00 0.00 91 1007.7
20260505101004 67 178 2.0 5.0 0.00 0.00 0.00 91 1007.6
20260505100504 67 176 2.0 5.0 0.00 0.00 0.00 91 1007.6
20260505100004 67 176 2.0 5.0 0.00 0.00 0.00 91 1007.7